Location: Utrecht
(52.0907°N, 5.1214°E)
Time: 10:42:55
(UTC+02:00)

MOZHAYETS 4 - Pass Details

Date: 05 July 2022
Orbit: 660 x 678 km, 98.2° (Epoch: 17 August)

Event Time Altitude Azimuth Distance (km) Brightness Sun altitude
Rises 01:57:46 0° 106° (ESE) 3,023 11.0 -15.0°
Reaches altitude 10° 02:01:06 10° 80° (E) 2,110 10.5 -15.0°
Maximum altitude 02:03:15 13° 52° (NE) 1,895 10.6 -15.0°
Drops below altitude 10° 02:05:24 10° 24° (NNE) 2,111 11.5 -15.0°
Sets 02:08:44 0° 358° (N) 3,025 12.9 -14.9°
